Regional Weather Roundup
Issued by NWS Upton, NY

Current Version | Previous Version | Text Only | Print | Product List | Glossary On
Versions: 1 2 3 4 5 6 7 8 9 10 11 12 13 14 15 16 17 18 19 20 21 22 23 24 25 26 27 28 29 30 31 32 33 34 35 36 37 38 39 40 41 42 43 44 45 46 47 48 49 50
000
ASUS41 KOKX 270609
RWROKX

REGIONAL WEATHER ROUNDUP
NATIONAL WEATHER SERVICE NEW YORK NY
200 AM EDT SAT MAY 27 2017

NOTE: "FAIR" INDICATES FEW OR NO CLOUDS BELOW 12,000 FEET WITH NO
SIGNIFICANT WEATHER AND/OR OBSTRUCTIONS TO VISIBILITY.

NYZ071-072-176-178-NJZ106-104-270700-
NEW YORK CITY METRO AREA

CITY           SKY/WX    TMP DP  RH WIND       PRES   REMARKS
Central Park   CLEAR     62  53  72 VRB3      29.85R
Wall St Helipt CLEAR     64  54  68 N3        29.83S
Bronx Bot Gard   N/A     63  50  63 W13       29.84R
LaGuardia APRT CLEAR     63  53  70 NW10      29.81S
Kennedy INTL   PTCLDY    65  53  65 NW14      29.82S
Breezy Point     N/A     63 N/A N/A NW7G13      N/A
Newark/Liberty CLEAR     63  53  70 SW7       29.82S
Teterboro      CLEAR     61  53  75 W7        29.81R
$$

NYZ177-179-078>081-270700-
LONG ISLAND NEW YORK

CITY           SKY/WX    TMP DP  RH WIND       PRES   REMARKS
Jones Beach      N/A     63 N/A N/A NW10        N/A
Matinecock PT    N/A     63 N/A N/A W8          N/A
Farmingdale    CLEAR     61  53  75 N3        29.81R
MacArthur/ISP  CLEAR     56  55  97 NW5       29.80R
Shirley        CLEAR     55  55 100 NW6       29.81R
Mt Sinai Harb    N/A     57 N/A N/A NW3         N/A
Westhampton    MOCLDY    59  50  72 NW7       29.81S
East Hampton   CLOUDY    57  55  91 CALM      29.78S
Montauk          N/A     57  54  89 NW7       29.79R
$$

NYZ052-065-067-270700-
HUDSON VALLEY

CITY           SKY/WX    TMP DP  RH WIND       PRES   REMARKS
White Plains   CLEAR     58  52  80 W5        29.81R
Larchmont Harb   N/A     61 N/A N/A W6          N/A
Croton O-T Hud   N/A     61 N/A N/A N2          N/A
Newburgh       MOCLDY    59  54  82 W12       29.83R
Montgomery     MOCLDY    57  51  80 W7        29.82R
Poughkeepsie   PTCLDY    54  53  97 CALM      29.80S
Albany         CLOUDY    54  51  90 N3        29.82S
$$

NJZ001-105-106-008-010-013-015-019>022-104-270700-
NEW JERSEY

CITY           SKY/WX    TMP DP  RH WIND       PRES   REMARKS
Newark/Liberty CLEAR     63  53  70 SW7       29.82S
Teterboro      CLEAR     61  53  75 W7        29.81R
Caldwell       CLEAR     60  53  77 S3        29.83S
Somerville     CLEAR     56  55  97 CALM      29.82S
Linden           N/A     61  52  71 NW5       29.83S
Perth Amboy      N/A     63 N/A N/A NW10        N/A
Sussex         PTCLDY    60  54  80 W6        29.84F
Andover          N/A     56  53  90 CALM      29.84S
Trenton        CLEAR     60  56  86 W3        29.85R
Millville      PTCLDY    60  55  83 W8        29.87S
Atlantic City  NOT AVBL
Wrightstown    CLEAR     61  55  82 W7        29.83R
Toms River     CLEAR     59  55  87 NW6       29.85R
Belmar         PTCLDY    61  55  81 W6        29.84S
$$

PAZ047>061-062-071-270700-
EASTERN PENNSYLVANIA

CITY           SKY/WX    TMP DP  RH WIND       PRES   REMARKS
Philadelphia   PTCLDY    64  54  69 W6        29.87S
Allentown      PTCLDY    58  53  84 SW5       29.85S
Scranton       CLOUDY    60  55  83 SW3       29.86S
$$

CTZ002-004>006-009-010-012-RIZ004-006-007-MAZ004-011-015-270700-
SOUTHERN NEW ENGLAND
 IN CT

CITY           SKY/WX    TMP DP  RH WIND       PRES   REMARKS
Bradley INTL   CLOUDY    57  51  80 N6        29.79R
Hartford       CLOUDY    60  52  74 NW3       29.79R
Danbury        CLOUDY    55  54  96 N3        29.82R
Wtrbury/Oxford   N/A     55  48  76 NW3       29.81S
Bridgeport     MOCLDY    62  52  69 NW6       29.80R
Meriden        CLOUDY    56  55  97 CALM      29.79S
New Haven      CLEAR     59  51  75 NW5       29.79S
Chester        CLOUDY    57  55  94 CALM      29.79S
Groton         CLOUDY    59  53  80 NW5       29.77S
Wilimantic     CLOUDY    57  53  86 N3        29.79R

 IN RI

CITY           SKY/WX    TMP DP  RH WIND       PRES   REMARKS
Providence     CLOUDY    54  54 100 N3        29.78R
Block Island   CLEAR     57  53  86 NW7       29.78R
Westerly       CLOUDY    58  54  86 CALM      29.78R
 IN MA

CITY           SKY/WX    TMP DP  RH WIND       PRES   REMARKS
Boston         CLOUDY    54  51  90 NW7       29.76R
Worcester      MOCLDY    50  48  93 NW7       29.77S
Westfield      CLOUDY    56  53  90 NW6       29.79R
Provincetown   MOCLDY    51  50  96 NW7       29.76R
Nantucket      CLOUDY   N/A N/A N/A N3        29.75R
$$

ANZ330-335-338-340-345-350-353-355-270700-
COASTAL MARINE OBSERVATIONS


STATION/POSITION TIME  SKY/WX   TEMP    WIND        PRES    VSBY  WAVE
                                AIR SEA DIR/SP/G                  HT/PER
                 (UTC)          (F)     (DEG/KT/KT) (MB)    (MI)  (FT/S)
NY HARB ENTRANCE 0450            62 57  300/ 12/ 12 1009.3          3/ 8
20 S FIRE ISLAND 0550            59 56  290/  8/ 10 1008.9          5/ 8
GREAT SOUTH BAY  0530            62 63  350/  4/  6   N/A
23 SSW MONTAUK P 0450            58 55              1008.7          6/ 9
15 E BARNEGAT LI 0500               58                N/A           4/ 8
HUDSON CANYON    0450            60 55  300/ 14/ 16 1008.8          5/ 7
KINGS POINT      0542            62 59  330/ 11/ 14 1009.3
EXECUTION ROCKS  0545            63                   N/A
CENTRAL LI SOUND 0515            58     310/  8/  8   N/A           1
EASTERN LI SOUND NOT AVBL
ROBBINS REEF     0542            65     300/ 10/ 12 1010.3
$$


>>>>>>>>>>>>>>>>>>>>>>>>>>>> KEY <<<<<<<<<<<<<<<<<<<<<<<<<<<
>                                                          <
>     SKY/WX - Sky Condition/Present Weather               <
>     TMP    - Temperature in Fahrenheit                   <
>     DP     - Dew Point in Fahrenheit                     <
>     RH     - Relative Humidity in Percent                <
>     WIND   - Direction (from) and Speed in MPH           <
>     PRES   - Mean Sea Level Pressure (inches of Hg)      <
>     WCI    - Wind Chill Index                            <
>     VSB    - VISIBILITY IN MILES                         <
>     HX     - HEAT INDEX                                  <
>     TC     - TEMPERATURE IN CELSIUS                      <
>     VRB    - VARIABLE WIND DIRECTION                     <
>                                                          <
>>>>>>>>>>>>>>>>>>>>>>>>>>>> KEY <<<<<<<<<<<<<<<<<<<<<<<<<<<



USA.gov is the U.S. government's official web portal to all federal, state and local government web resources and services.